owner,sensor,date,latitude,longitude,vertical_datum,sea_water_temperature,qcFlag 
TCOON,ioos:station:TCOON:127:1,2015-11-01T00:12:00Z,28.2598,-96.7737,0.0,24.5,2 
TCOON,ioos:station:TCOON:127:1,2015-11-01T01:12:00Z,28.2598,-96.7737,0.0,24.4,2 
TCOON,ioos:station:TCOON:127:1,2015-11-01T02:12:00Z,28.2598,-96.7737,0.0,24.4,2 
TCOON,ioos:station:TCOON:127:1,2015-11-01T03:12:00Z,28.2598,-96.7737,0.0,24.3,2 
TCOON,ioos:station:TCOON:127:1,2015-11-01T04:12:00Z,28.2598,-96.7737,0.0,24.2,2 
TCOON,ioos:station:TCOON:127:1,2015-11-01T05:12:00Z,28.2598,-96.7737,0.0,24.2,2 
TCOON,ioos:station:TCOON:127:1,2015-11-01T06:18:00Z,28.2598,-96.7737,0.0,24.1,2 
TCOON,ioos:station:TCOON:127:1,2015-11-01T07:12:00Z,28.2598,-96.7737,0.0,23.9,2 
TCOON,ioos:station:TCOON:127:1,2015-11-01T08:12:00Z,28.2598,-96.7737,0.0,23.8,2 
TCOON,ioos:station:TCOON:127:1,2015-11-01T09:12:00Z,28.2598,-96.7737,0.0,23.8,2 
TCOON,ioos:station:TCOON:127:1,2015-11-01T10:12:00Z,28.2598,-96.7737,0.0,23.8,2 
TCOON,ioos:station:TCOON:127:1,2015-11-01T11:12:00Z,28.2598,-96.7737,0.0,23.7,2 
TCOON,ioos:station:TCOON:127:1,2015-11-01T12:12:00Z,28.2598,-96.7737,0.0,23.7,2 
TCOON,ioos:station:TCOON:127:1,2015-11-01T13:12:00Z,28.2598,-96.7737,0.0,23.7,2 
TCOON,ioos:station:TCOON:127:1,2015-11-01T14:12:00Z,28.2598,-96.7737,0.0,23.6,2 
TCOON,ioos:station:TCOON:127:1,2015-11-01T15:12:00Z,28.2598,-96.7737,0.0,23.6,2 
TCOON,ioos:station:TCOON:127:1,2015-11-01T16:12:00Z,28.2598,-96.7737,0.0,23.7,2 
TCOON,ioos:station:TCOON:127:1,2015-11-01T17:12:00Z,28.2598,-96.7737,0.0,23.9,2 
TCOON,ioos:station:TCOON:127:1,2015-11-01T19:12:00Z,28.2598,-96.7737,0.0,24.3,2 
TCOON,ioos:station:TCOON:127:1,2015-11-01T20:12:00Z,28.2598,-96.7737,0.0,24.4,2 
TCOON,ioos:station:TCOON:127:1,2015-11-01T21:12:00Z,28.2598,-96.7737,0.0,24.5,2 
TCOON,ioos:station:TCOON:127:1,2015-11-01T22:12:00Z,28.2598,-96.7737,0.0,24.6,2 
TCOON,ioos:station:TCOON:127:1,2015-11-01T23:12:00Z,28.2598,-96.7737,0.0,24.5,2 
TCOON,ioos:station:TCOON:127:1,2015-11-02T00:12:00Z,28.2598,-96.7737,0.0,24.5,2 
TCOON,ioos:station:TCOON:127:1,2015-11-02T01:12:00Z,28.2598,-96.7737,0.0,24.4,2 
TCOON,ioos:station:TCOON:127:1,2015-11-02T02:12:00Z,28.2598,-96.7737,0.0,24.3,2 
TCOON,ioos:station:TCOON:127:1,2015-11-02T03:12:00Z,28.2598,-96.7737,0.0,24.1,2 
TCOON,ioos:station:TCOON:127:1,2015-11-02T04:12:00Z,28.2598,-96.7737,0.0,24.0,2 
TCOON,ioos:station:TCOON:127:1,2015-11-02T05:18:00Z,28.2598,-96.7737,0.0,24.0,2 
TCOON,ioos:station:TCOON:127:1,2015-11-02T06:18:00Z,28.2598,-96.7737,0.0,23.9,2 
TCOON,ioos:station:TCOON:127:1,2015-11-02T07:12:00Z,28.2598,-96.7737,0.0,23.8,2 
TCOON,ioos:station:TCOON:127:1,2015-11-02T08:18:00Z,28.2598,-96.7737,0.0,23.8,2 
TCOON,ioos:station:TCOON:127:1,2015-11-02T09:18:00Z,28.2598,-96.7737,0.0,23.7,2 
TCOON,ioos:station:TCOON:127:1,2015-11-02T10:18:00Z,28.2598,-96.7737,0.0,23.8,2 
TCOON,ioos:station:TCOON:127:1,2015-11-02T11:12:00Z,28.2598,-96.7737,0.0,23.7,2 
TCOON,ioos:station:TCOON:127:1,2015-11-02T12:18:00Z,28.2598,-96.7737,0.0,23.6,2 
TCOON,ioos:station:TCOON:127:1,2015-11-02T13:24:00Z,28.2598,-96.7737,0.0,23.5,2 
TCOON,ioos:station:TCOON:127:1,2015-11-02T14:12:00Z,28.2598,-96.7737,0.0,23.5,2 
TCOON,ioos:station:TCOON:127:1,2015-11-02T15:18:00Z,28.2598,-96.7737,0.0,23.6,2 
TCOON,ioos:station:TCOON:127:1,2015-11-02T16:18:00Z,28.2598,-96.7737,0.0,23.6,2 
TCOON,ioos:station:TCOON:127:1,2015-11-02T17:12:00Z,28.2598,-96.7737,0.0,23.6,2 
TCOON,ioos:station:TCOON:127:1,2015-11-02T18:18:00Z,28.2598,-96.7737,0.0,24.0,2 
TCOON,ioos:station:TCOON:127:1,2015-11-02T19:18:00Z,28.2598,-96.7737,0.0,24.4,2 
TCOON,ioos:station:TCOON:127:1,2015-11-02T20:18:00Z,28.2598,-96.7737,0.0,24.7,2 
TCOON,ioos:station:TCOON:127:1,2015-11-02T21:12:00Z,28.2598,-96.7737,0.0,24.9,2 
TCOON,ioos:station:TCOON:127:1,2015-11-02T22:12:00Z,28.2598,-96.7737,0.0,24.7,2 
TCOON,ioos:station:TCOON:127:1,2015-11-02T23:12:00Z,28.2598,-96.7737,0.0,24.8,2 
TCOON,ioos:station:TCOON:127:1,2015-11-03T00:12:00Z,28.2598,-96.7737,0.0,24.7,2 
TCOON,ioos:station:TCOON:127:1,2015-11-03T01:12:00Z,28.2598,-96.7737,0.0,24.7,2 
TCOON,ioos:station:TCOON:127:1,2015-11-03T02:12:00Z,28.2598,-96.7737,0.0,24.7,2 
TCOON,ioos:station:TCOON:127:1,2015-11-03T03:12:00Z,28.2598,-96.7737,0.0,24.4,2 
TCOON,ioos:station:TCOON:127:1,2015-11-03T04:12:00Z,28.2598,-96.7737,0.0,24.3,2 
TCOON,ioos:station:TCOON:127:1,2015-11-03T05:18:00Z,28.2598,-96.7737,0.0,24.2,2 
TCOON,ioos:station:TCOON:127:1,2015-11-03T06:24:00Z,28.2598,-96.7737,0.0,24.1,2 
TCOON,ioos:station:TCOON:127:1,2015-11-03T07:12:00Z,28.2598,-96.7737,0.0,24.1,2 
TCOON,ioos:station:TCOON:127:1,2015-11-03T08:12:00Z,28.2598,-96.7737,0.0,24.0,2 
TCOON,ioos:station:TCOON:127:1,2015-11-03T09:12:00Z,28.2598,-96.7737,0.0,23.9,2 
TCOON,ioos:station:TCOON:127:1,2015-11-03T10:12:00Z,28.2598,-96.7737,0.0,23.8,2 
TCOON,ioos:station:TCOON:127:1,2015-11-03T11:12:00Z,28.2598,-96.7737,0.0,23.7,2 
TCOON,ioos:station:TCOON:127:1,2015-11-03T12:12:00Z,28.2598,-96.7737,0.0,23.6,2 
TCOON,ioos:station:TCOON:127:1,2015-11-03T13:12:00Z,28.2598,-96.7737,0.0,23.5,2 
TCOON,ioos:station:TCOON:127:1,2015-11-03T14:12:00Z,28.2598,-96.7737,0.0,23.4,2 
TCOON,ioos:station:TCOON:127:1,2015-11-03T15:12:00Z,28.2598,-96.7737,0.0,23.4,2 
TCOON,ioos:station:TCOON:127:1,2015-11-03T16:12:00Z,28.2598,-96.7737,0.0,23.5,2 
TCOON,ioos:station:TCOON:127:1,2015-11-03T17:12:00Z,28.2598,-96.7737,0.0,23.6,2 
TCOON,ioos:station:TCOON:127:1,2015-11-03T18:12:00Z,28.2598,-96.7737,0.0,23.8,2 
TCOON,ioos:station:TCOON:127:1,2015-11-03T19:18:00Z,28.2598,-96.7737,0.0,24.1,2 
TCOON,ioos:station:TCOON:127:1,2015-11-03T20:18:00Z,28.2598,-96.7737,0.0,24.2,2 
TCOON,ioos:station:TCOON:127:1,2015-11-03T21:18:00Z,28.2598,-96.7737,0.0,24.3,2 
TCOON,ioos:station:TCOON:127:1,2015-11-03T22:12:00Z,28.2598,-96.7737,0.0,24.4,2 
TCOON,ioos:station:TCOON:127:1,2015-11-03T23:12:00Z,28.2598,-96.7737,0.0,24.3,2 
TCOON,ioos:station:TCOON:127:1,2015-11-04T00:12:00Z,28.2598,-96.7737,0.0,24.4,2 
TCOON,ioos:station:TCOON:127:1,2015-11-04T01:12:00Z,28.2598,-96.7737,0.0,24.3,2 
TCOON,ioos:station:TCOON:127:1,2015-11-04T02:12:00Z,28.2598,-96.7737,0.0,24.3,2 
TCOON,ioos:station:TCOON:127:1,2015-11-04T03:12:00Z,28.2598,-96.7737,0.0,24.2,2 
TCOON,ioos:station:TCOON:127:1,2015-11-04T04:06:00Z,28.2598,-96.7737,0.0,24.1,2 
TCOON,ioos:station:TCOON:127:1,2015-11-04T05:12:00Z,28.2598,-96.7737,0.0,24.0,2 
TCOON,ioos:station:TCOON:127:1,2015-11-04T06:12:00Z,28.2598,-96.7737,0.0,23.9,2 
TCOON,ioos:station:TCOON:127:1,2015-11-04T07:12:00Z,28.2598,-96.7737,0.0,23.9,2 
TCOON,ioos:station:TCOON:127:1,2015-11-04T08:12:00Z,28.2598,-96.7737,0.0,23.9,2 
TCOON,ioos:station:TCOON:127:1,2015-11-04T09:12:00Z,28.2598,-96.7737,0.0,23.8,2 
TCOON,ioos:station:TCOON:127:1,2015-11-04T10:12:00Z,28.2598,-96.7737,0.0,23.8,2 
TCOON,ioos:station:TCOON:127:1,2015-11-04T11:12:00Z,28.2598,-96.7737,0.0,23.8,2 
TCOON,ioos:station:TCOON:127:1,2015-11-04T12:12:00Z,28.2598,-96.7737,0.0,23.8,2 
TCOON,ioos:station:TCOON:127:1,2015-11-04T13:12:00Z,28.2598,-96.7737,0.0,23.8,2 
TCOON,ioos:station:TCOON:127:1,2015-11-11T14:24:00Z,28.2598,-96.7737,0.0,22.9,2 
TCOON,ioos:station:TCOON:127:1,2015-11-11T15:12:00Z,28.2598,-96.7737,0.0,23.0,2 
TCOON,ioos:station:TCOON:127:1,2015-11-11T16:12:00Z,28.2598,-96.7737,0.0,23.1,2 
TCOON,ioos:station:TCOON:127:1,2015-11-11T17:12:00Z,28.2598,-96.7737,0.0,23.2,2 
TCOON,ioos:station:TCOON:127:1,2015-11-11T18:18:00Z,28.2598,-96.7737,0.0,23.3,2 
TCOON,ioos:station:TCOON:127:1,2015-11-11T19:18:00Z,28.2598,-96.7737,0.0,23.4,2 
TCOON,ioos:station:TCOON:127:1,2015-11-11T20:18:00Z,28.2598,-96.7737,0.0,23.6,2 
TCOON,ioos:station:TCOON:127:1,2015-11-11T21:12:00Z,28.2598,-96.7737,0.0,23.7,2 
TCOON,ioos:station:TCOON:127:1,2015-11-11T22:18:00Z,28.2598,-96.7737,0.0,23.9,2 
TCOON,ioos:station:TCOON:127:1,2015-11-11T23:18:00Z,28.2598,-96.7737,0.0,23.9,2 
TCOON,ioos:station:TCOON:127:1,2015-11-12T00:12:00Z,28.2598,-96.7737,0.0,23.9,2 
TCOON,ioos:station:TCOON:127:1,2015-11-12T01:24:00Z,28.2598,-96.7737,0.0,24.0,2 
TCOON,ioos:station:TCOON:127:1,2015-11-12T03:12:00Z,28.2598,-96.7737,0.0,23.9,2 
TCOON,ioos:station:TCOON:127:1,2015-11-12T04:12:00Z,28.2598,-96.7737,0.0,23.9,2 
TCOON,ioos:station:TCOON:127:1,2015-11-12T05:12:00Z,28.2598,-96.7737,0.0,23.9,2 
TCOON,ioos:station:TCOON:127:1,2015-11-12T06:12:00Z,28.2598,-96.7737,0.0,23.9,2 
TCOON,ioos:station:TCOON:127:1,2015-11-12T07:12:00Z,28.2598,-96.7737,0.0,23.9,2 
TCOON,ioos:station:TCOON:127:1,2015-11-12T08:12:00Z,28.2598,-96.7737,0.0,23.7,2 
TCOON,ioos:station:TCOON:127:1,2015-11-12T09:12:00Z,28.2598,-96.7737,0.0,23.5,2 
TCOON,ioos:station:TCOON:127:1,2015-11-12T10:12:00Z,28.2598,-96.7737,0.0,23.4,2 
TCOON,ioos:station:TCOON:127:1,2015-11-12T11:12:00Z,28.2598,-96.7737,0.0,23.2,2 
TCOON,ioos:station:TCOON:127:1,2015-11-12T12:12:00Z,28.2598,-96.7737,0.0,23.0,2 
TCOON,ioos:station:TCOON:127:1,2015-11-12T13:12:00Z,28.2598,-96.7737,0.0,22.9,2 
TCOON,ioos:station:TCOON:127:1,2015-11-12T14:12:00Z,28.2598,-96.7737,0.0,22.7,2 
TCOON,ioos:station:TCOON:127:1,2015-11-12T15:12:00Z,28.2598,-96.7737,0.0,22.7,2 
TCOON,ioos:station:TCOON:127:1,2015-11-12T16:12:00Z,28.2598,-96.7737,0.0,22.6,2 
TCOON,ioos:station:TCOON:127:1,2015-11-12T17:12:00Z,28.2598,-96.7737,0.0,22.4,2 
TCOON,ioos:station:TCOON:127:1,2015-11-12T18:12:00Z,28.2598,-96.7737,0.0,22.4,2 
TCOON,ioos:station:TCOON:127:1,2015-11-12T19:12:00Z,28.2598,-96.7737,0.0,22.3,2 
TCOON,ioos:station:TCOON:127:1,2015-11-12T20:12:00Z,28.2598,-96.7737,0.0,22.1,2 
TCOON,ioos:station:TCOON:127:1,2015-11-12T21:12:00Z,28.2598,-96.7737,0.0,21.9,2 
TCOON,ioos:station:TCOON:127:1,2015-11-12T22:12:00Z,28.2598,-96.7737,0.0,21.9,2 
TCOON,ioos:station:TCOON:127:1,2015-11-12T23:12:00Z,28.2598,-96.7737,0.0,21.7,2 
TCOON,ioos:station:TCOON:127:1,2015-11-13T00:12:00Z,28.2598,-96.7737,0.0,21.5,2 
TCOON,ioos:station:TCOON:127:1,2015-11-13T01:12:00Z,28.2598,-96.7737,0.0,21.4,2 
TCOON,ioos:station:TCOON:127:1,2015-11-13T02:12:00Z,28.2598,-96.7737,0.0,21.3,2 
TCOON,ioos:station:TCOON:127:1,2015-11-13T04:00:00Z,28.2598,-96.7737,0.0,21.1,2 
TCOON,ioos:station:TCOON:127:1,2015-11-13T05:12:00Z,28.2598,-96.7737,0.0,21.0,2 
TCOON,ioos:station:TCOON:127:1,2015-11-13T06:12:00Z,28.2598,-96.7737,0.0,21.0,2 
TCOON,ioos:station:TCOON:127:1,2015-11-13T07:12:00Z,28.2598,-96.7737,0.0,20.9,2 
TCOON,ioos:station:TCOON:127:1,2015-11-13T08:12:00Z,28.2598,-96.7737,0.0,20.8,2 
TCOON,ioos:station:TCOON:127:1,2015-11-13T09:24:00Z,28.2598,-96.7737,0.0,20.7,2 
TCOON,ioos:station:TCOON:127:1,2015-11-13T10:12:00Z,28.2598,-96.7737,0.0,20.6,2 
TCOON,ioos:station:TCOON:127:1,2015-11-13T11:30:00Z,28.2598,-96.7737,0.0,20.4,2 
TCOON,ioos:station:TCOON:127:1,2015-11-13T12:12:00Z,28.2598,-96.7737,0.0,20.3,2 
TCOON,ioos:station:TCOON:127:1,2015-11-13T13:12:00Z,28.2598,-96.7737,0.0,20.2,2 
TCOON,ioos:station:TCOON:127:1,2015-11-13T14:36:00Z,28.2598,-96.7737,0.0,20.0,2 
TCOON,ioos:station:TCOON:127:1,2015-11-13T15:12:00Z,28.2598,-96.7737,0.0,20.0,2 
TCOON,ioos:station:TCOON:127:1,2015-11-13T16:12:00Z,28.2598,-96.7737,0.0,20.0,2 
TCOON,ioos:station:TCOON:127:1,2015-11-13T17:06:00Z,28.2598,-96.7737,0.0,20.1,2 
TCOON,ioos:station:TCOON:127:1,2015-11-13T18:12:00Z,28.2598,-96.7737,0.0,20.3,2 
TCOON,ioos:station:TCOON:127:1,2015-11-13T19:12:00Z,28.2598,-96.7737,0.0,20.3,2 
TCOON,ioos:station:TCOON:127:1,2015-11-13T20:12:00Z,28.2598,-96.7737,0.0,20.3,2 
TCOON,ioos:station:TCOON:127:1,2015-11-13T21:24:00Z,28.2598,-96.7737,0.0,20.4,2 
TCOON,ioos:station:TCOON:127:1,2015-11-13T22:12:00Z,28.2598,-96.7737,0.0,20.4,2 
TCOON,ioos:station:TCOON:127:1,2015-11-13T23:12:00Z,28.2598,-96.7737,0.0,20.3,2 
TCOON,ioos:station:TCOON:127:1,2015-11-14T00:06:00Z,28.2598,-96.7737,0.0,20.3,2 
TCOON,ioos:station:TCOON:127:1,2015-11-14T01:12:00Z,28.2598,-96.7737,0.0,20.2,2 
TCOON,ioos:station:TCOON:127:1,2015-11-14T02:24:00Z,28.2598,-96.7737,0.0,20.0,2 
TCOON,ioos:station:TCOON:127:1,2015-11-14T03:12:00Z,28.2598,-96.7737,0.0,20.0,2 
TCOON,ioos:station:TCOON:127:1,2015-11-14T04:36:00Z,28.2598,-96.7737,0.0,19.9,2 
TCOON,ioos:station:TCOON:127:1,2015-11-14T05:12:00Z,28.2598,-96.7737,0.0,19.9,2 
TCOON,ioos:station:TCOON:127:1,2015-11-14T06:12:00Z,28.2598,-96.7737,0.0,19.8,2 
TCOON,ioos:station:TCOON:127:1,2015-11-14T07:12:00Z,28.2598,-96.7737,0.0,19.7,2 
TCOON,ioos:station:TCOON:127:1,2015-11-14T08:12:00Z,28.2598,-96.7737,0.0,19.7,2 
TCOON,ioos:station:TCOON:127:1,2015-11-14T09:06:00Z,28.2598,-96.7737,0.0,19.6,2 
TCOON,ioos:station:TCOON:127:1,2015-11-14T10:12:00Z,28.2598,-96.7737,0.0,19.5,2 
TCOON,ioos:station:TCOON:127:1,2015-11-14T11:12:00Z,28.2598,-96.7737,0.0,19.3,2 
TCOON,ioos:station:TCOON:127:1,2015-11-14T12:12:00Z,28.2598,-96.7737,0.0,19.2,2 
TCOON,ioos:station:TCOON:127:1,2015-11-14T13:12:00Z,28.2598,-96.7737,0.0,19.2,2 
TCOON,ioos:station:TCOON:127:1,2015-11-14T14:12:00Z,28.2598,-96.7737,0.0,19.2,2 
TCOON,ioos:station:TCOON:127:1,2015-11-14T15:12:00Z,28.2598,-96.7737,0.0,19.0,2 
TCOON,ioos:station:TCOON:127:1,2015-11-14T16:06:00Z,28.2598,-96.7737,0.0,19.0,2 
TCOON,ioos:station:TCOON:127:1,2015-11-14T17:12:00Z,28.2598,-96.7737,0.0,19.2,2 
TCOON,ioos:station:TCOON:127:1,2015-11-14T18:12:00Z,28.2598,-96.7737,0.0,19.3,2 
TCOON,ioos:station:TCOON:127:1,2015-11-14T19:06:00Z,28.2598,-96.7737,0.0,19.5,2 
TCOON,ioos:station:TCOON:127:1,2015-11-14T20:06:00Z,28.2598,-96.7737,0.0,19.7,2 
TCOON,ioos:station:TCOON:127:1,2015-11-14T21:12:00Z,28.2598,-96.7737,0.0,19.9,2 
TCOON,ioos:station:TCOON:127:1,2015-11-14T22:12:00Z,28.2598,-96.7737,0.0,20.0,2 
TCOON,ioos:station:TCOON:127:1,2015-11-14T23:18:00Z,28.2598,-96.7737,0.0,19.9,2 
TCOON,ioos:station:TCOON:127:1,2015-11-15T00:12:00Z,28.2598,-96.7737,0.0,19.9,2 
TCOON,ioos:station:TCOON:127:1,2015-11-15T01:12:00Z,28.2598,-96.7737,0.0,19.8,2 
TCOON,ioos:station:TCOON:127:1,2015-11-15T02:24:00Z,28.2598,-96.7737,0.0,19.7,2 
TCOON,ioos:station:TCOON:127:1,2015-11-15T03:12:00Z,28.2598,-96.7737,0.0,19.7,2 
TCOON,ioos:station:TCOON:127:1,2015-11-15T04:12:00Z,28.2598,-96.7737,0.0,19.6,2 
TCOON,ioos:station:TCOON:127:1,2015-11-15T05:12:00Z,28.2598,-96.7737,0.0,19.5,2 
TCOON,ioos:station:TCOON:127:1,2015-11-15T06:12:00Z,28.2598,-96.7737,0.0,19.4,2 
TCOON,ioos:station:TCOON:127:1,2015-11-15T07:12:00Z,28.2598,-96.7737,0.0,19.4,2 
TCOON,ioos:station:TCOON:127:1,2015-11-15T08:12:00Z,28.2598,-96.7737,0.0,19.2,2 
TCOON,ioos:station:TCOON:127:1,2015-11-15T09:12:00Z,28.2598,-96.7737,0.0,19.1,2 
TCOON,ioos:station:TCOON:127:1,2015-11-15T10:12:00Z,28.2598,-96.7737,0.0,19.1,2 
TCOON,ioos:station:TCOON:127:1,2015-11-15T11:12:00Z,28.2598,-96.7737,0.0,19.0,2 
TCOON,ioos:station:TCOON:127:1,2015-11-15T12:12:00Z,28.2598,-96.7737,0.0,18.9,2 
TCOON,ioos:station:TCOON:127:1,2015-11-15T13:12:00Z,28.2598,-96.7737,0.0,18.9,2 
TCOON,ioos:station:TCOON:127:1,2015-11-15T14:12:00Z,28.2598,-96.7737,0.0,18.9,2 
TCOON,ioos:station:TCOON:127:1,2015-11-15T15:06:00Z,28.2598,-96.7737,0.0,18.9,2 
TCOON,ioos:station:TCOON:127:1,2015-11-15T16:12:00Z,28.2598,-96.7737,0.0,19.1,2 
TCOON,ioos:station:TCOON:127:1,2015-11-15T17:12:00Z,28.2598,-96.7737,0.0,19.2,2 
TCOON,ioos:station:TCOON:127:1,2015-11-15T18:12:00Z,28.2598,-96.7737,0.0,19.3,2 
TCOON,ioos:station:TCOON:127:1,2015-11-15T19:12:00Z,28.2598,-96.7737,0.0,19.7,2 
TCOON,ioos:station:TCOON:127:1,2015-11-15T20:12:00Z,28.2598,-96.7737,0.0,19.9,2 
TCOON,ioos:station:TCOON:127:1,2015-11-15T21:12:00Z,28.2598,-96.7737,0.0,20.1,2 
TCOON,ioos:station:TCOON:127:1,2015-11-15T22:18:00Z,28.2598,-96.7737,0.0,20.4,2 
TCOON,ioos:station:TCOON:127:1,2015-11-15T23:12:00Z,28.2598,-96.7737,0.0,20.3,2 
TCOON,ioos:station:TCOON:127:1,2015-11-16T00:12:00Z,28.2598,-96.7737,0.0,20.1,2 
TCOON,ioos:station:TCOON:127:1,2015-11-16T01:12:00Z,28.2598,-96.7737,0.0,20.0,2 
TCOON,ioos:station:TCOON:127:1,2015-11-16T02:30:00Z,28.2598,-96.7737,0.0,19.9,2 
TCOON,ioos:station:TCOON:127:1,2015-11-16T03:12:00Z,28.2598,-96.7737,0.0,20.0,2 
TCOON,ioos:station:TCOON:127:1,2015-11-16T04:18:00Z,28.2598,-96.7737,0.0,20.2,2 
TCOON,ioos:station:TCOON:127:1,2015-11-16T05:12:00Z,28.2598,-96.7737,0.0,20.1,2 
TCOON,ioos:station:TCOON:127:1,2015-11-16T06:06:00Z,28.2598,-96.7737,0.0,20.2,2 
TCOON,ioos:station:TCOON:127:1,2015-11-16T07:12:00Z,28.2598,-96.7737,0.0,20.2,2 
TCOON,ioos:station:TCOON:127:1,2015-11-16T08:12:00Z,28.2598,-96.7737,0.0,20.2,2 
TCOON,ioos:station:TCOON:127:1,2015-11-16T09:12:00Z,28.2598,-96.7737,0.0,20.2,2 
TCOON,ioos:station:TCOON:127:1,2015-11-16T10:18:00Z,28.2598,-96.7737,0.0,20.2,2 
TCOON,ioos:station:TCOON:127:1,2015-11-16T11:18:00Z,28.2598,-96.7737,0.0,20.2,2 
TCOON,ioos:station:TCOON:127:1,2015-11-16T12:18:00Z,28.2598,-96.7737,0.0,20.2,2 
TCOON,ioos:station:TCOON:127:1,2015-11-16T13:12:00Z,28.2598,-96.7737,0.0,20.2,2 
TCOON,ioos:station:TCOON:127:1,2015-11-16T14:18:00Z,28.2598,-96.7737,0.0,20.2,2 
TCOON,ioos:station:TCOON:127:1,2015-11-16T15:24:00Z,28.2598,-96.7737,0.0,20.2,2 
TCOON,ioos:station:TCOON:127:1,2015-11-16T16:18:00Z,28.2598,-96.7737,0.0,20.2,2 
TCOON,ioos:station:TCOON:127:1,2015-11-16T17:12:00Z,28.2598,-96.7737,0.0,20.2,2 
TCOON,ioos:station:TCOON:127:1,2015-11-16T18:12:00Z,28.2598,-96.7737,0.0,20.2,2 
TCOON,ioos:station:TCOON:127:1,2015-11-16T19:12:00Z,28.2598,-96.7737,0.0,20.2,2 
TCOON,ioos:station:TCOON:127:1,2015-11-16T20:12:00Z,28.2598,-96.7737,0.0,20.2,2 
TCOON,ioos:station:TCOON:127:1,2015-11-16T21:12:00Z,28.2598,-96.7737,0.0,20.2,2 
TCOON,ioos:station:TCOON:127:1,2015-11-16T22:12:00Z,28.2598,-96.7737,0.0,20.4,2 
TCOON,ioos:station:TCOON:127:1,2015-11-17T00:12:00Z,28.2598,-96.7737,0.0,20.8,2 
TCOON,ioos:station:TCOON:127:1,2015-11-17T01:12:00Z,28.2598,-96.7737,0.0,21.3,2 
TCOON,ioos:station:TCOON:127:1,2015-11-17T02:24:00Z,28.2598,-96.7737,0.0,20.8,2 
TCOON,ioos:station:TCOON:127:1,2015-11-17T03:12:00Z,28.2598,-96.7737,0.0,20.8,2 
TCOON,ioos:station:TCOON:127:1,2015-11-17T04:12:00Z,28.2598,-96.7737,0.0,20.9,2 
TCOON,ioos:station:TCOON:127:1,2015-11-17T05:12:00Z,28.2598,-96.7737,0.0,21.2,2 
TCOON,ioos:station:TCOON:127:1,2015-11-17T06:12:00Z,28.2598,-96.7737,0.0,21.2,2 
TCOON,ioos:station:TCOON:127:1,2015-11-17T07:12:00Z,28.2598,-96.7737,0.0,21.2,2 
TCOON,ioos:station:TCOON:127:1,2015-11-17T08:12:00Z,28.2598,-96.7737,0.0,21.1,2 
TCOON,ioos:station:TCOON:127:1,2015-11-17T09:12:00Z,28.2598,-96.7737,0.0,21.1,2 
TCOON,ioos:station:TCOON:127:1,2015-11-17T10:12:00Z,28.2598,-96.7737,0.0,21.2,2 
TCOON,ioos:station:TCOON:127:1,2015-11-17T11:12:00Z,28.2598,-96.7737,0.0,21.6,2 
TCOON,ioos:station:TCOON:127:1,2015-11-17T12:18:00Z,28.2598,-96.7737,0.0,21.6,2 
TCOON,ioos:station:TCOON:127:1,2015-11-17T13:12:00Z,28.2598,-96.7737,0.0,21.6,2 
TCOON,ioos:station:TCOON:127:1,2015-11-17T14:12:00Z,28.2598,-96.7737,0.0,21.7,2 
TCOON,ioos:station:TCOON:127:1,2015-11-17T15:12:00Z,28.2598,-96.7737,0.0,21.8,2 
TCOON,ioos:station:TCOON:127:1,2015-11-17T16:24:00Z,28.2598,-96.7737,0.0,21.9,2 
TCOON,ioos:station:TCOON:127:1,2015-11-17T17:18:00Z,28.2598,-96.7737,0.0,22.0,2 
TCOON,ioos:station:TCOON:127:1,2015-11-17T18:12:00Z,28.2598,-96.7737,0.0,22.0,2 
TCOON,ioos:station:TCOON:127:1,2015-11-17T19:12:00Z,28.2598,-96.7737,0.0,21.7,2 
TCOON,ioos:station:TCOON:127:1,2015-11-17T20:12:00Z,28.2598,-96.7737,0.0,21.5,2 
TCOON,ioos:station:TCOON:127:1,2015-11-17T21:12:00Z,28.2598,-96.7737,0.0,21.6,2 
TCOON,ioos:station:TCOON:127:1,2015-11-17T22:12:00Z,28.2598,-96.7737,0.0,21.4,2 
TCOON,ioos:station:TCOON:127:1,2015-11-17T23:06:00Z,28.2598,-96.7737,0.0,21.2,2 
TCOON,ioos:station:TCOON:127:1,2015-11-18T00:12:00Z,28.2598,-96.7737,0.0,21.2,2 
TCOON,ioos:station:TCOON:127:1,2015-11-18T01:12:00Z,28.2598,-96.7737,0.0,21.0,2 
TCOON,ioos:station:TCOON:127:1,2015-11-18T02:06:00Z,28.2598,-96.7737,0.0,21.1,2 
TCOON,ioos:station:TCOON:127:1,2015-11-18T03:12:00Z,28.2598,-96.7737,0.0,20.9,2 
TCOON,ioos:station:TCOON:127:1,2015-11-18T04:12:00Z,28.2598,-96.7737,0.0,20.9,2 
TCOON,ioos:station:TCOON:127:1,2015-11-18T05:12:00Z,28.2598,-96.7737,0.0,20.5,2 
TCOON,ioos:station:TCOON:127:1,2015-11-18T06:12:00Z,28.2598,-96.7737,0.0,20.5,2 
TCOON,ioos:station:TCOON:127:1,2015-11-18T07:12:00Z,28.2598,-96.7737,0.0,20.5,2 
TCOON,ioos:station:TCOON:127:1,2015-11-18T08:12:00Z,28.2598,-96.7737,0.0,20.5,2 
TCOON,ioos:station:TCOON:127:1,2015-11-18T09:12:00Z,28.2598,-96.7737,0.0,20.4,2 
TCOON,ioos:station:TCOON:127:1,2015-11-18T10:12:00Z,28.2598,-96.7737,0.0,20.2,2 
TCOON,ioos:station:TCOON:127:1,2015-11-18T11:12:00Z,28.2598,-96.7737,0.0,20.0,2 
TCOON,ioos:station:TCOON:127:1,2015-11-18T12:12:00Z,28.2598,-96.7737,0.0,20.1,2 
TCOON,ioos:station:TCOON:127:1,2015-11-18T13:12:00Z,28.2598,-96.7737,0.0,20.0,2 
TCOON,ioos:station:TCOON:127:1,2015-11-18T14:12:00Z,28.2598,-96.7737,0.0,19.7,2 
TCOON,ioos:station:TCOON:127:1,2015-11-18T15:54:00Z,28.2598,-96.7737,0.0,19.7,2 
TCOON,ioos:station:TCOON:127:1,2015-11-18T16:12:00Z,28.2598,-96.7737,0.0,19.9,2 
TCOON,ioos:station:TCOON:127:1,2015-11-18T17:12:00Z,28.2598,-96.7737,0.0,20.5,2 
TCOON,ioos:station:TCOON:127:1,2015-11-18T18:12:00Z,28.2598,-96.7737,0.0,20.7,2 
TCOON,ioos:station:TCOON:127:1,2015-11-18T19:12:00Z,28.2598,-96.7737,0.0,21.5,2 
TCOON,ioos:station:TCOON:127:1,2015-11-18T20:12:00Z,28.2598,-96.7737,0.0,21.4,2 
TCOON,ioos:station:TCOON:127:1,2015-11-18T21:12:00Z,28.2598,-96.7737,0.0,21.2,2 
TCOON,ioos:station:TCOON:127:1,2015-11-18T22:12:00Z,28.2598,-96.7737,0.0,21.3,2 
TCOON,ioos:station:TCOON:127:1,2015-11-18T23:12:00Z,28.2598,-96.7737,0.0,21.4,2 
TCOON,ioos:station:TCOON:127:1,2015-11-19T00:12:00Z,28.2598,-96.7737,0.0,21.3,2 
TCOON,ioos:station:TCOON:127:1,2015-11-19T01:12:00Z,28.2598,-96.7737,0.0,21.1,2 
TCOON,ioos:station:TCOON:127:1,2015-11-19T02:30:00Z,28.2598,-96.7737,0.0,21.0,2 
TCOON,ioos:station:TCOON:127:1,2015-11-19T03:12:00Z,28.2598,-96.7737,0.0,21.0,2 
TCOON,ioos:station:TCOON:127:1,2015-11-19T04:12:00Z,28.2598,-96.7737,0.0,21.0,2 
TCOON,ioos:station:TCOON:127:1,2015-11-19T05:12:00Z,28.2598,-96.7737,0.0,20.9,2 
TCOON,ioos:station:TCOON:127:1,2015-11-19T06:12:00Z,28.2598,-96.7737,0.0,21.0,2 
TCOON,ioos:station:TCOON:127:1,2015-11-19T07:12:00Z,28.2598,-96.7737,0.0,21.0,2 
TCOON,ioos:station:TCOON:127:1,2015-11-19T08:12:00Z,28.2598,-96.7737,0.0,21.2,2 
TCOON,ioos:station:TCOON:127:1,2015-11-19T09:12:00Z,28.2598,-96.7737,0.0,21.2,2 
TCOON,ioos:station:TCOON:127:1,2015-11-19T10:12:00Z,28.2598,-96.7737,0.0,21.1,2 
TCOON,ioos:station:TCOON:127:1,2015-11-19T11:18:00Z,28.2598,-96.7737,0.0,21.0,2 
TCOON,ioos:station:TCOON:127:1,2015-11-19T12:12:00Z,28.2598,-96.7737,0.0,20.7,2 
TCOON,ioos:station:TCOON:127:1,2015-11-19T13:12:00Z,28.2598,-96.7737,0.0,20.1,2 
TCOON,ioos:station:TCOON:127:1,2015-11-19T14:18:00Z,28.2598,-96.7737,0.0,19.8,2 
TCOON,ioos:station:TCOON:127:1,2015-11-19T15:24:00Z,28.2598,-96.7737,0.0,19.8,2 
TCOON,ioos:station:TCOON:127:1,2015-11-19T16:12:00Z,28.2598,-96.7737,0.0,20.1,2 
TCOON,ioos:station:TCOON:127:1,2015-11-19T17:18:00Z,28.2598,-96.7737,0.0,20.4,2 
TCOON,ioos:station:TCOON:127:1,2015-11-19T18:18:00Z,28.2598,-96.7737,0.0,20.3,2 
TCOON,ioos:station:TCOON:127:1,2015-11-19T19:12:00Z,28.2598,-96.7737,0.0,20.8,2 
TCOON,ioos:station:TCOON:127:1,2015-11-19T20:12:00Z,28.2598,-96.7737,0.0,20.7,2 
TCOON,ioos:station:TCOON:127:1,2015-11-20T01:12:00Z,28.2598,-96.7737,0.0,21.2,2 
TCOON,ioos:station:TCOON:127:1,2015-11-20T02:12:00Z,28.2598,-96.7737,0.0,21.1,2 
TCOON,ioos:station:TCOON:127:1,2015-11-20T03:12:00Z,28.2598,-96.7737,0.0,21.2,2 
TCOON,ioos:station:TCOON:127:1,2015-11-20T04:06:00Z,28.2598,-96.7737,0.0,21.1,2 
TCOON,ioos:station:TCOON:127:1,2015-11-20T05:12:00Z,28.2598,-96.7737,0.0,21.1,2 
TCOON,ioos:station:TCOON:127:1,2015-11-20T06:12:00Z,28.2598,-96.7737,0.0,21.0,2 
TCOON,ioos:station:TCOON:127:1,2015-11-20T07:12:00Z,28.2598,-96.7737,0.0,21.1,2 
TCOON,ioos:station:TCOON:127:1,2015-11-20T08:12:00Z,28.2598,-96.7737,0.0,21.1,2 
TCOON,ioos:station:TCOON:127:1,2015-11-20T09:12:00Z,28.2598,-96.7737,0.0,21.1,2 
TCOON,ioos:station:TCOON:127:1,2015-11-20T10:12:00Z,28.2598,-96.7737,0.0,21.0,2 
TCOON,ioos:station:TCOON:127:1,2015-11-20T11:12:00Z,28.2598,-96.7737,0.0,21.0,2 
TCOON,ioos:station:TCOON:127:1,2015-11-20T12:12:00Z,28.2598,-96.7737,0.0,21.0,2 
TCOON,ioos:station:TCOON:127:1,2015-11-20T13:12:00Z,28.2598,-96.7737,0.0,20.9,2 
TCOON,ioos:station:TCOON:127:1,2015-11-20T14:12:00Z,28.2598,-96.7737,0.0,20.9,2 